N9XP-9 Weather Reports


Display with metric or nautical units.
time (UTC)temp
F
wind
direction
speed
MPH
gust
MPH
rain 1hr
in
rain 24hr
in
rain mn
in
humidity
%
barometer
mb
20260902051515 77 153 0.0 1.0 0.00 0.00 0.00 87 1013.3
20260902050020 77 133 0.0 1.0 0.00 0.00 0.00 86 1013.3
20260902044510 77 147 0.0 1.0 0.00 0.00 0.00 86 1013.3
20260902043013 78 129 0.0 1.0 0.00 0.00 0.00 84 1013.2
20260902041519 78 127 0.0 0.0 0.00 0.00 0.00 84 1013.2
20260902040006 79 129 0.0 1.0 0.00 0.00 0.00 83 1013.3
20260902034507 79 118 0.0 1.0 0.00 0.00 0.00 82 1013.4
20260902033006 80 113 0.0 1.0 0.00 0.00 0.00 81 1013.4
20260902031505 80 114 0.0 1.0 0.00 0.00 0.00 80 1013.5
20260902030005 81 148 0.0 4.0 0.00 0.00 0.00 80 1013.5
20260902024503 81 148 0.0 0.0 0.00 0.00 0.00 80 1013.4
20260902023004 82 160 0.0 1.0 0.00 0.00 0.00 78 1013.4
20260902021512 83 238 0.0 3.0 0.00 0.00 0.00 76 1013.3
20260902020002 83 136 1.0 3.0 0.00 0.00 0.00 76 1013.2
20260902014502 84 136 0.0 4.0 0.00 0.00 0.00 75 1013.0
20260902013001 84 166 1.0 5.0 0.00 0.00 0.00 74 1012.9
20260902011502 84 167 2.0 6.0 0.00 0.00 0.00 74 1012.7
20260902004559 85 167 0.0 2.0 0.00 0.00 0.00 74 1012.4
20260902003058 86 170 0.0 4.0 0.00 0.00 0.00 73 1012.2
20260902001607 87 172 0.0 5.0 0.00 0.00 0.00 72 1012.3
20260902000056 88 164 1.0 5.0 0.00 0.00 0.00 71 1012.4
20260901234605 89 157 1.0 4.0 0.00 0.00 0.00 70 1012.5
20260901233105 90 136 0.0 3.0 0.00 0.00 0.00 69 1012.5
20260901231554 90 138 0.0 4.0 0.00 0.00 0.00 65 1012.6
20260901230053 91 134 1.0 4.0 0.00 0.00 0.00 64 1012.6
20260901224553 91 139 0.0 4.0 0.00 0.00 0.00 65 1012.6
20260901223053 91 129 2.0 6.0 0.00 0.00 0.00 64 1012.7
20260901221551 91 176 1.0 5.0 0.00 0.00 0.00 64 1012.8
20260901220050 92 194 0.0 4.0 0.00 0.00 0.00 63 1012.7
20260901214602 93 139 0.0 6.0 0.00 0.00 0.00 62 1012.7
20260901213122 93 163 2.0 10.0 0.00 0.00 0.00 60 1012.7
20260901211549 93 221 0.0 6.0 0.00 0.00 0.00 61 1012.7
20260901210047 94 122 2.0 7.0 0.00 0.00 0.00 60 1012.8
20260901204545 93 160 1.0 4.0 0.00 0.00 0.00 63 1012.8
20260901203112 93 160 2.0 6.0 0.00 0.00 0.00 61 1012.9
20260901201545 93 152 3.0 8.0 0.00 0.00 0.00 59 1012.9
20260901200043 93 162 4.0 9.0 0.00 0.00 0.00 61 1013.0
20260901194543 93 158 3.0 8.0 0.00 0.00 0.00 57 1013.1
20260901193042 93 147 2.0 9.0 0.00 0.00 0.00 60 1013.1
20260901191539 93 148 3.0 10.0 0.00 0.00 0.00 64 1013.2
20260901190037 91 130 4.0 9.0 0.00 0.00 0.00 65 1013.3
20260901184537 92 136 3.0 8.0 0.00 0.00 0.00 63 1013.5
20260901183041 93 140 1.0 4.0 0.00 0.00 0.00 62 1013.6
20260901181533 92 134 3.0 6.0 0.00 0.00 0.00 64 1013.6
20260901180033 91 153 4.0 9.0 0.00 0.00 0.00 66 1013.7
20260901174531 91 129 1.0 4.0 0.00 0.00 0.00 67 1013.7
20260901173028 91 136 3.0 8.0 0.00 0.00 0.00 69 1013.7
20260901171525 90 167 2.0 8.0 0.00 0.00 0.00 68 1013.9
20260901170025 90 161 1.0 8.0 0.00 0.00 0.00 69 1014.0
20260901164523 89 169 3.0 7.0 0.00 0.00 0.00 69 1014.1
20260901163021 89 315 1.0 3.0 0.00 0.00 0.00 70 1014.1
20260901161517 87 285 0.0 4.0 0.00 0.00 0.00 75 1014.2
20260901160016 86 143 1.0 4.0 0.00 0.00 0.00 75 1014.1
20260901154516 85 185 1.0 6.0 0.00 0.00 0.00 76 1014.0
20260901153010 85 162 2.0 6.0 0.00 0.00 0.00 76 1014.1
20260901151506 83 124 1.0 7.0 0.00 0.00 0.00 79 1014.2
20260901150006 82 126 3.0 6.0 0.00 0.00 0.00 79 1014.2
20260901144501 82 228 2.0 6.0 0.00 0.00 0.00 79 1014.3
20260901143102 82 171 0.0 4.0 0.00 0.00 0.00 81 1014.3
20260901141558 80 165 2.0 6.0 0.00 0.00 0.00 82 1014.2
20260901140100 79 156 2.0 7.0 0.00 0.00 0.00 85 1014.1
20260901134551 78 149 1.0 4.0 0.00 0.04 0.00 86 1014.2
20260901133048 77 173 0.0 4.0 0.00 0.04 0.00 87 1014.2
20260901131547 76 157 0.0 3.0 0.00 0.04 0.00 89 1014.3
20260901130047 76 151 1.0 6.0 0.00 0.04 0.00 89 1014.4
20260901124547 76 154 0.0 3.0 0.00 0.27 0.00 90 1014.5
20260901123045 75 132 0.0 4.0 0.00 0.27 0.00 90 1014.4
20260901121544 75 140 0.0 2.0 0.00 0.27 0.00 91 1014.3
20260901120046 74 130 0.0 1.0 0.00 0.27 0.00 92 1014.0
20260901114540 74 157 0.0 2.0 0.00 0.27 0.00 92 1013.8
20260901113039 74 148 0.0 1.0 0.00 0.27 0.00 92 1013.7
20260901111537 74 131 0.0 1.0 0.00 0.27 0.00 92 1013.5
20260901110037 74 156 0.0 1.0 0.00 0.27 0.00 92 1013.4
20260901104540 74 141 0.0 1.0 0.00 0.27 0.00 92 1013.3
20260901103033 74 112 0.0 1.0 0.00 0.27 0.00 91 1013.3
20260901101531 75 113 0.0 1.0 0.00 0.27 0.00 90 1013.1
20260901100029 75 148 0.0 3.0 0.00 0.27 0.00 90 1013.2
20260901094533 75 130 0.0 2.0 0.00 0.27 0.00 90 1013.3
20260901093027 75 134 0.0 2.0 0.00 0.27 0.00 89 1013.2
20260901091526 75 124 0.0 1.0 0.00 0.27 0.00 89 1013.2
20260901090024 76 200 0.0 2.0 0.00 0.27 0.00 88 1013.1
20260901084523 76 155 0.0 2.0 0.00 0.27 0.00 88 1013.0
20260901083022 76 139 0.0 3.0 0.00 0.27 0.00 87 1013.0
20260901081522 77 144 1.0 5.0 0.00 0.27 0.00 87 1013.0
20260901080022 77 150 1.0 4.0 0.00 0.27 0.00 87 1013.0
20260901074520 76 134 0.0 4.0 0.00 0.27 0.00 87 1013.0
20260901073019 76 133 0.0 1.0 0.00 0.27 0.00 89 1013.0
20260901071518 76 134 0.0 1.0 0.00 0.27 0.00 89 1012.9
20260901070016 76 143 0.0 1.0 0.00 0.27 0.00 89 1012.9
20260901064515 76 136 0.0 1.0 0.00 0.27 0.00 89 1012.8
20260901063019 76 141 0.0 1.0 0.00 0.27 0.00 89 1012.8
20260901061514 76 150 0.0 1.0 0.00 0.27 0.00 90 1012.7
20260901060013 76 112 0.0 1.0 0.00 0.27 0.00 90 1012.7
20260901054511 76 135 0.0 1.0 0.00 0.27 0.00 89 1012.8
20260901053008 77 134 0.0 1.0 0.00 0.27 0.00 88 1012.8